No particular awareness of the weather is required.    There are no Weather-warnings


Meteo18 Weather Cam more information Meteo18 Weather Cam


Thunder radar more information blitzortung!


Rain radar more information rain snow radar


Visit our other weather sites:

Template documentation
and downloads

And another site



Weather Underground History page Text

Daily Summary for January 4, 2018 Units:  English    Metric   Both
« Previous Day
Next Day »
Daily Weekly Monthly Yearly Custom
  High: Low: Average:
Temperature: TemperatureC °F 8.5 °F 11.4 °F
Dew Point: DewpointC °F 7.6 °F 10.4 °F
Humidity: Humidity % 87 % 94 %
Wind Speed: WindSpeedKMH mph 1.4 mph 19.4 mph
Wind Gust: WindSpeedGustKMH mph - -
Wind:- - WSW
Pressure: PressurehPa in 1005.6 in -
Precipitation: 14.0 in    
Historical Graphs
 
 
Tabular Data for January 4, 2018
Time Temperature Dew Point Pressure Wind Wind Speed Wind Gust Humidity Rainfall Rate (Hourly)
TemperatureC °F DewpointC °F PressurehPa in Calm     Humidity % HourlyPrecipMM in
00:01 8.6 °F 8.0 °F 1011.7 in SSW 9.7 mph 17.7 mph 96 % 2.0 in
00:07 8.7 °F 8.1 °F 1011.7 in SW 13.0 mph 13.0 mph 96 % 2.0 in
00:09 8.6 °F 8.0 °F 1011.7 in SW 7.9 mph 14.5 mph 96 % 2.0 in
00:15 8.7 °F 8.1 °F 1011.7 in SW 13.0 mph 25.7 mph 96 % 1.8 in
00:21 8.7 °F 8.1 °F 1011.7 in SW 13.0 mph 17.7 mph 96 % 2.0 in
00:27 8.7 °F 8.1 °F 1011.4 in West 4.7 mph 17.7 mph 96 % 2.0 in
00:33 8.8 °F 8.2 °F 1011.1 in SW 16.3 mph 20.9 mph 96 % 2.0 in
00:39 8.8 °F 8.2 °F 1010.7 in WSW 7.9 mph 14.5 mph 96 % 2.0 in
00:43 8.8 °F 8.2 °F 1010.7 in SW 11.1 mph 17.7 mph 96 % 2.0 in
00:57 8.8 °F 8.2 °F 1010.4 in WSW 9.7 mph 16.1 mph 96 % 2.3 in
01:03 8.8 °F 8.2 °F 1010.4 in SW 9.7 mph 19.3 mph 96 % 2.3 in
01:15 8.8 °F 8.2 °F 1010.0 in SW 9.7 mph 14.5 mph 96 % 2.5 in
01:21 8.8 °F 8.2 °F 1010.0 in SW 13.0 mph 17.7 mph 96 % 2.3 in
01:27 8.8 °F 8.2 °F 1009.7 in WSW 6.4 mph 14.5 mph 96 % 2.3 in
01:41 8.8 °F 8.2 °F 1009.4 in SW 6.4 mph 11.3 mph 96 % 2.3 in
01:47 8.7 °F 8.1 °F 1009.4 in SW 7.9 mph 11.3 mph 96 % 2.3 in
01:53 8.7 °F 8.1 °F 1009.0 in SW 7.9 mph 11.3 mph 96 % 2.3 in
01:55 8.7 °F 8.1 °F 1009.0 in SSW 3.2 mph 11.3 mph 96 % 2.3 in
02:01 8.7 °F 8.1 °F 1009.0 in WSW 9.7 mph 11.3 mph 96 % 1.8 in
02:07 8.7 °F 8.1 °F 1009.0 in SSW 3.2 mph 9.7 mph 96 % 1.8 in
02:13 8.7 °F 8.1 °F 1009.0 in SW 6.4 mph 9.7 mph 96 % 1.8 in
02:19 8.7 °F 8.3 °F 1009.0 in SSW 6.4 mph 11.3 mph 97 % 1.5 in
02:25 8.6 °F 8.2 °F 1009.0 in SW 6.4 mph 11.3 mph 97 % 1.5 in
02:31 8.6 °F 8.2 °F 1008.7 in SSW 9.7 mph 14.5 mph 97 % 1.5 in
02:43 8.6 °F 8.2 °F 1008.4 in South 9.7 mph 11.3 mph 97 % 1.3 in
02:49 8.6 °F 8.2 °F 1008.4 in SSW 6.4 mph 12.9 mph 97 % 1.0 in
02:55 8.6 °F 8.2 °F 1008.4 in SSW 6.4 mph 11.3 mph 97 % 0.8 in
03:01 8.6 °F 8.2 °F 1008.4 in SW 3.2 mph 9.7 mph 97 % 1.0 in
03:07 8.5 °F 8.1 °F 1008.4 in South 3.2 mph 8.0 mph 97 % 0.8 in
03:13 8.5 °F 8.1 °F 1008.4 in SSW 6.4 mph 8.0 mph 97 % 0.5 in
03:17 8.5 °F 8.1 °F 1008.4 in SSW 4.7 mph 8.0 mph 97 % 0.5 in
03:19 8.5 °F 8.1 °F 1008.4 in SSW 3.2 mph 6.4 mph 97 % 0.5 in
03:21 8.5 °F 8.1 °F 1008.4 in South 3.2 mph 8.0 mph 97 % 0.8 in
03:27 8.5 °F 8.1 °F 1008.0 in SSW 6.4 mph 6.4 mph 97 % 0.8 in
03:33 8.6 °F 8.2 °F 1008.0 in SSW 1.4 mph 9.7 mph 97 % 0.5 in
03:39 8.6 °F 8.2 °F 1008.0 in SSW 3.2 mph 6.4 mph 97 % 0.5 in
03:45 8.6 °F 8.2 °F 1008.0 in WSW 3.2 mph 6.4 mph 97 % 0.8 in
03:51 8.7 °F 8.3 °F 1008.0 in SW 3.2 mph 6.4 mph 97 % 0.8 in
03:57 8.8 °F 8.3 °F 1008.0 in SW 1.4 mph 4.8 mph 97 % 1.0 in
04:05 9.4 °F 9.1 °F 1007.7 in West 3.2 mph 8.0 mph 98 % 1.0 in
04:11 9.7 °F 9.4 °F 1007.7 in SW 3.2 mph 6.4 mph 98 % 1.5 in
04:15 10.1 °F 9.8 °F 1007.7 in WSW 9.7 mph 16.1 mph 98 % 1.5 in
04:21 10.6 °F 10.3 °F 1007.7 in SW 14.3 mph 17.7 mph 98 % 1.5 in
04:27 10.9 °F 10.6 °F 1007.7 in SW 6.4 mph 14.5 mph 98 % 1.5 in
04:33 11.4 °F 11.1 °F 1007.7 in West 20.9 mph 20.9 mph 98 % 1.8 in
04:39 11.7 °F 11.4 °F 1007.3 in WSW 11.1 mph 30.6 mph 98 % 1.5 in
04:45 11.9 °F 11.6 °F 1007.3 in West 22.7 mph 30.6 mph 98 % 1.5 in
04:51 12.1 °F 11.8 °F 1007.3 in WNW 13.0 mph 30.6 mph 98 % 1.5 in
04:55 12.2 °F 11.9 °F 1007.3 in WSW 19.5 mph 27.4 mph 98 % 1.5 in
05:01 12.3 °F 11.8 °F 1007.3 in SW 20.9 mph 27.4 mph 97 % 1.5 in
05:07 12.4 °F 11.9 °F 1007.3 in WNW 27.4 mph 40.2 mph 97 % 1.3 in
05:14 12.5 °F 11.9 °F 1007.0 in WSW 27.4 mph 35.4 mph 96 % 1.0 in
05:18 12.5 °F 11.9 °F 1007.3 in WSW 19.5 mph 24.1 mph 96 % 0.8 in
05:26 12.6 °F 12.0 °F 1007.3 in West 28.8 mph 35.4 mph 96 % 0.8 in
05:28 12.6 °F 12.0 °F 1007.3 in WSW 20.9 mph 35.4 mph 96 % 0.8 in
05:30 12.6 °F 11.8 °F 1007.0 in WSW 19.5 mph 32.2 mph 95 % 0.5 in
05:32 12.6 °F 12.0 °F 1007.0 in SW 32.0 mph 33.8 mph 96 % 0.5 in
05:40 12.6 °F 11.8 °F 1007.3 in West 24.1 mph 35.4 mph 95 % 0.5 in
05:46 12.6 °F 11.8 °F 1007.3 in West 16.3 mph 32.2 mph 95 % 0.5 in
05:52 12.7 °F 11.9 °F 1007.0 in West 27.4 mph 35.4 mph 95 % 0.5 in
05:58 12.7 °F 11.9 °F 1007.3 in WSW 19.5 mph 45.1 mph 95 % 0.5 in
06:06 12.7 °F 11.9 °F 1007.3 in WSW 25.9 mph 37.0 mph 95 % 0.3 in
06:10 12.7 °F 11.9 °F 1007.3 in West 19.5 mph 38.6 mph 95 % 0.3 in
06:14 12.7 °F 11.9 °F 1007.3 in WSW 22.7 mph 38.6 mph 95 % 0.3 in
06:20 12.7 °F 11.9 °F 1007.3 in West 30.6 mph 37.0 mph 95 % 0.3 in
06:30 12.7 °F 11.9 °F 1007.3 in West 30.6 mph 30.6 mph 95 % 0.5 in
06:36 12.7 °F 11.9 °F 1007.3 in West 35.2 mph 35.4 mph 95 % 0.8 in
06:38 12.7 °F 11.9 °F 1007.3 in WNW 17.7 mph 33.8 mph 95 % 1.0 in
06:40 12.7 °F 11.9 °F 1007.0 in WSW 16.3 mph 32.2 mph 95 % 1.0 in
06:46 12.7 °F 11.9 °F 1007.0 in SW 22.7 mph 38.6 mph 95 % 1.3 in
06:48 12.7 °F 11.9 °F 1007.3 in West 20.9 mph 33.8 mph 95 % 1.5 in
06:54 12.7 °F 11.9 °F 1007.0 in WSW 28.8 mph 40.2 mph 95 % 1.5 in
07:00 12.6 °F 11.8 °F 1007.0 in WSW 27.4 mph 29.0 mph 95 % 1.5 in
07:06 12.6 °F 11.8 °F 1007.0 in WSW 19.5 mph 24.1 mph 95 % 1.8 in
07:12 12.6 °F 11.8 °F 1007.0 in West 25.9 mph 29.0 mph 95 % 1.8 in
07:14 12.6 °F 11.8 °F 1007.0 in WSW 20.9 mph 30.6 mph 95 % 2.0 in
07:20 12.6 °F 11.8 °F 1007.0 in West 22.7 mph 49.9 mph 95 % 2.0 in
07:26 12.6 °F 11.8 °F 1007.0 in SW 25.9 mph 41.8 mph 95 % 2.0 in
07:28 12.6 °F 11.8 °F 1007.0 in WSW 22.7 mph 38.6 mph 95 % 1.8 in
07:32 12.6 °F 11.8 °F 1007.0 in West 16.3 mph 33.8 mph 95 % 1.8 in
07:38 12.6 °F 11.8 °F 1007.3 in West 24.1 mph 35.4 mph 95 % 1.5 in
07:44 12.6 °F 11.8 °F 1007.3 in West 25.9 mph 40.2 mph 95 % 1.5 in
07:58 12.7 °F 11.8 °F 1007.3 in WSW 30.6 mph 43.4 mph 94 % 1.3 in
08:04 12.6 °F 11.7 °F 1007.3 in West 20.9 mph 40.2 mph 94 % 1.0 in
08:10 12.7 °F 11.8 °F 1007.3 in WNW 27.4 mph 41.8 mph 94 % 1.0 in
08:18 12.7 °F 11.8 °F 1007.3 in WSW 33.8 mph 41.8 mph 94 % 0.8 in
08:22 12.7 °F 11.8 °F 1007.0 in West 24.1 mph 45.1 mph 94 % 0.8 in
08:28 12.6 °F 11.7 °F 1007.3 in West 35.2 mph 45.1 mph 94 % 0.5 in
08:34 12.6 °F 11.7 °F 1007.3 in West 40.4 mph 40.4 mph 94 % 0.5 in
08:40 12.6 °F 11.7 °F 1007.3 in West 41.7 mph 48.3 mph 94 % 0.5 in
08:42 12.6 °F 11.7 °F 1007.3 in West 19.5 mph 46.7 mph 94 % 0.5 in
08:48 12.6 °F 11.7 °F 1007.3 in West 22.7 mph 54.7 mph 94 % 0.5 in
08:54 12.6 °F 11.5 °F 1007.7 in WSW 33.8 mph 48.3 mph 93 % 0.5 in
09:00 12.6 °F 11.5 °F 1007.7 in West 37.0 mph 40.2 mph 93 % 0.5 in
09:06 12.6 °F 11.5 °F 1007.7 in WSW 24.1 mph 51.5 mph 93 % 0.5 in
09:12 12.6 °F 11.5 °F 1007.7 in WSW 27.4 mph 56.3 mph 93 % 0.5 in
09:18 12.6 °F 11.5 °F 1007.7 in WSW 33.8 mph 53.1 mph 93 % 0.3 in
09:24 12.7 °F 11.4 °F 1008.0 in SW 28.8 mph 40.2 mph 92 % 0.3 in
09:30 12.6 °F 11.5 °F 1007.7 in West 25.9 mph 46.7 mph 93 % 0.3 in
09:36 12.6 °F 11.5 °F 1007.7 in WSW 43.6 mph 54.7 mph 93 % 0.3 in
09:42 12.6 °F 11.5 °F 1008.0 in WSW 25.9 mph 48.3 mph 93 % 0.0 in
09:48 12.6 °F 11.5 °F 1008.0 in SW 20.9 mph 41.8 mph 93 % 0.0 in
09:54 12.6 °F 11.3 °F 1008.0 in SW 22.7 mph 41.8 mph 92 % 0.0 in
10:00 12.6 °F 11.3 °F 1008.4 in WSW 27.4 mph 62.8 mph 92 % 0.0 in
10:04 12.6 °F 11.3 °F 1008.4 in WSW 32.0 mph 43.4 mph 92 % 0.0 in
10:10 12.6 °F 11.3 °F 1008.4 in SSW 7.9 mph 41.8 mph 92 % 0.0 in
10:12 12.6 °F 11.3 °F 1008.4 in WSW 22.7 mph 41.8 mph 92 % 0.0 in
10:18 12.4 °F 11.3 °F 1008.4 in West 28.8 mph 37.0 mph 93 % 0.0 in
10:20 12.4 °F 11.3 °F 1008.4 in WSW 32.0 mph 35.4 mph 93 % 0.0 in
10:26 12.4 °F 11.3 °F 1008.0 in NW 17.7 mph 38.6 mph 93 % 0.0 in
10:32 12.4 °F 11.3 °F 1008.4 in West 27.4 mph 38.6 mph 93 % 0.0 in
10:38 12.4 °F 11.3 °F 1008.4 in SW 14.3 mph 35.4 mph 93 % 0.0 in
10:44 12.4 °F 11.3 °F 1008.4 in WSW 25.9 mph 43.4 mph 93 % 0.0 in
10:50 12.4 °F 11.3 °F 1008.7 in West 22.7 mph 43.4 mph 93 % 0.0 in
10:56 12.4 °F 11.3 °F 1008.7 in SW 28.8 mph 33.8 mph 93 % 0.0 in
11:02 12.3 °F 11.4 °F 1008.7 in WSW 17.7 mph 32.2 mph 94 % 0.0 in
11:08 12.3 °F 11.4 °F 1008.7 in West 28.8 mph 33.8 mph 94 % 0.0 in
11:18 12.3 °F 11.4 °F 1008.7 in SW 38.5 mph 43.4 mph 94 % 0.0 in
11:24 12.2 °F 11.3 °F 1008.7 in SW 28.8 mph 29.0 mph 94 % 0.0 in
11:30 12.3 °F 11.4 °F 1008.7 in SSW 17.7 mph 40.2 mph 94 % 0.0 in
11:36 12.3 °F 11.4 °F 1008.7 in West 19.5 mph 22.5 mph 94 % 0.0 in
11:44 12.3 °F 11.5 °F 1008.4 in West 22.7 mph 41.8 mph 95 % 0.0 in
11:50 12.3 °F 11.5 °F 1008.7 in West 19.5 mph 30.6 mph 95 % 0.0 in
11:54 12.3 °F 11.5 °F 1008.4 in WSW 32.0 mph 43.4 mph 95 % 0.0 in
11:56 12.3 °F 11.5 °F 1008.4 in WSW 32.0 mph 38.6 mph 95 % 0.0 in
12:04 12.2 °F 11.4 °F 1008.4 in WSW 17.7 mph 37.0 mph 95 % 0.0 in
12:06 12.2 °F 11.4 °F 1008.4 in WSW 19.5 mph 41.8 mph 95 % 0.0 in
12:10 12.2 °F 11.4 °F 1008.4 in WSW 16.3 mph 32.2 mph 95 % 0.0 in
12:16 12.2 °F 11.4 °F 1008.0 in WSW 24.1 mph 24.1 mph 95 % 0.3 in
12:18 12.2 °F 11.4 °F 1008.4 in SW 9.7 mph 40.2 mph 95 % 0.3 in
12:22 12.2 °F 11.4 °F 1008.0 in WSW 19.5 mph 37.0 mph 95 % 0.3 in
12:24 12.2 °F 11.4 °F 1008.0 in WSW 22.7 mph 32.2 mph 95 % 0.3 in
12:30 12.2 °F 11.4 °F 1008.4 in WSW 14.3 mph 37.0 mph 95 % 0.3 in
12:36 12.2 °F 11.4 °F 1008.4 in SW 17.7 mph 38.6 mph 95 % 0.3 in
12:42 12.2 °F 11.4 °F 1008.4 in SW 24.1 mph 38.6 mph 95 % 0.3 in
12:48 12.3 °F 11.5 °F 1008.4 in WSW 19.5 mph 32.2 mph 95 % 0.3 in
12:56 12.3 °F 11.5 °F 1008.0 in WSW 24.1 mph 33.8 mph 95 % 0.3 in
13:02 12.3 °F 11.5 °F 1008.0 in SW 22.7 mph 46.7 mph 95 % 0.5 in
13:06 12.3 °F 11.5 °F 1008.0 in West 9.7 mph 30.6 mph 95 % 0.5 in
13:12 12.3 °F 11.5 °F 1007.7 in WNW 16.3 mph 48.3 mph 95 % 0.3 in
13:20 12.3 °F 11.5 °F 1007.3 in WSW 37.0 mph 49.9 mph 95 % 0.3 in
13:26 12.3 °F 11.5 °F 1007.3 in WSW 22.7 mph 33.8 mph 95 % 0.3 in
13:34 12.3 °F 11.5 °F 1007.3 in West 25.9 mph 41.8 mph 95 % 0.3 in
13:38 12.3 °F 11.5 °F 1007.3 in West 24.1 mph 35.4 mph 95 % 0.3 in
13:44 12.3 °F 11.5 °F 1007.0 in West 17.7 mph 45.1 mph 95 % 0.3 in
13:50 12.3 °F 11.5 °F 1007.3 in West 25.9 mph 38.6 mph 95 % 0.3 in
13:56 12.3 °F 11.5 °F 1007.3 in SW 16.3 mph 37.0 mph 95 % 0.3 in
14:02 12.3 °F 11.5 °F 1007.3 in WSW 17.7 mph 37.0 mph 95 % 0.0 in
14:06 12.3 °F 11.4 °F 1007.3 in SW 20.9 mph 48.3 mph 94 % 0.0 in
14:08 12.3 °F 11.4 °F 1007.0 in SW 30.6 mph 40.2 mph 94 % 0.0 in
14:16 12.3 °F 11.4 °F 1007.0 in WSW 35.2 mph 37.0 mph 94 % 0.0 in
14:24 12.3 °F 11.4 °F 1007.0 in West 19.5 mph 32.2 mph 94 % 0.3 in
14:32 12.3 °F 11.4 °F 1007.0 in WSW 19.5 mph 32.2 mph 94 % 0.3 in
14:38 12.3 °F 11.5 °F 1006.7 in WSW 37.0 mph 46.7 mph 95 % 0.3 in
14:48 12.3 °F 11.5 °F 1006.7 in WSW 19.5 mph 37.0 mph 95 % 0.3 in
14:50 12.3 °F 11.5 °F 1007.0 in West 24.1 mph 27.4 mph 95 % 0.3 in
14:56 12.3 °F 11.5 °F 1006.7 in WSW 17.7 mph 37.0 mph 95 % 0.3 in
15:00 12.3 °F 11.5 °F 1006.7 in WSW 16.3 mph 43.4 mph 95 % 0.3 in
15:02 12.3 °F 11.5 °F 1006.7 in SW 14.3 mph 24.1 mph 95 % 0.3 in
15:04 12.3 °F 11.5 °F 1006.7 in SW 19.5 mph 35.4 mph 95 % 0.3 in
15:10 12.3 °F 11.5 °F 1006.7 in West 17.7 mph 33.8 mph 95 % 0.5 in
15:11 12.3 °F 11.5 °F 1006.7 in West 14.3 mph 37.0 mph 95 % 0.5 in
15:18 12.3 °F 11.7 °F 1006.7 in West 22.7 mph 35.4 mph 96 % 0.5 in
15:27 12.3 °F 11.7 °F 1006.7 in SW 16.3 mph 32.2 mph 96 % 0.3 in
15:33 12.3 °F 11.5 °F 1006.3 in SW 32.0 mph 40.2 mph 95 % 0.3 in
15:39 12.4 °F 11.6 °F 1006.3 in West 20.9 mph 40.2 mph 95 % 0.5 in
15:47 12.6 °F 11.7 °F 1006.3 in WSW 27.4 mph 40.2 mph 94 % 0.5 in
15:53 12.6 °F 11.7 °F 1006.3 in WSW 22.7 mph 30.6 mph 94 % 0.5 in
16:01 12.6 °F 11.7 °F 1006.3 in SW 22.7 mph 29.0 mph 94 % 0.5 in
16:03 12.6 °F 11.7 °F 1006.3 in WSW 25.9 mph 32.2 mph 94 % 0.5 in
16:11 12.7 °F 11.8 °F 1006.3 in WSW 19.5 mph 48.3 mph 94 % 0.3 in
16:17 12.7 °F 11.6 °F 1006.3 in WSW 19.5 mph 38.6 mph 93 % 0.3 in
16:29 12.7 °F 11.6 °F 1006.3 in WSW 24.1 mph 33.8 mph 93 % 0.3 in
16:35 12.8 °F 11.7 °F 1006.0 in WSW 24.1 mph 35.4 mph 93 % 0.0 in
16:41 12.8 °F 11.7 °F 1006.0 in SW 14.3 mph 43.4 mph 93 % 0.0 in
16:47 12.8 °F 11.7 °F 1006.0 in WSW 20.9 mph 38.6 mph 93 % 0.0 in
16:53 12.8 °F 11.5 °F 1006.0 in WSW 24.1 mph 35.4 mph 92 % 0.0 in
17:01 12.7 °F 11.6 °F 1006.0 in WSW 30.6 mph 30.6 mph 93 % 0.0 in
17:03 12.7 °F 11.6 °F 1006.0 in WSW 17.7 mph 35.4 mph 93 % 0.0 in
17:09 12.7 °F 11.4 °F 1006.0 in SW 27.4 mph 41.8 mph 92 % 0.0 in
17:11 12.8 °F 11.5 °F 1006.0 in WSW 20.9 mph 38.6 mph 92 % 0.0 in
17:13 12.8 °F 11.5 °F 1006.0 in WSW 28.8 mph 35.4 mph 92 % 0.0 in
17:17 12.8 °F 11.5 °F 1006.0 in WSW 24.1 mph 43.4 mph 92 % 0.0 in
17:23 12.9 °F 11.5 °F 1006.0 in SW 25.9 mph 48.3 mph 91 % 0.0 in
17:30 12.9 °F 11.5 °F 1006.0 in South 13.0 mph 40.2 mph 91 % 0.0 in
17:36 12.9 °F 11.5 °F 1006.0 in West 20.9 mph 41.8 mph 91 % 0.0 in
17:37 13.0 °F 11.4 °F 1005.6 in WSW 27.4 mph 41.8 mph 90 % 0.0 in
17:43 13.1 °F 11.5 °F 1006.0 in SW 50.0 mph 50.0 mph 90 % 0.0 in
17:51 13.1 °F 11.3 °F 1006.0 in WSW 32.0 mph 33.8 mph 89 % 0.0 in
17:53 13.1 °F 11.3 °F 1006.0 in West 20.9 mph 33.8 mph 89 % 0.0 in
17:59 12.9 °F 11.3 °F 1006.0 in West 11.1 mph 43.4 mph 90 % 0.0 in
18:05 12.7 °F 11.3 °F 1006.0 in SW 27.4 mph 38.6 mph 91 % 0.3 in
18:07 12.6 °F 11.2 °F 1005.6 in SW 20.9 mph 43.4 mph 91 % 0.3 in
18:11 12.5 °F 11.2 °F 1005.6 in SW 24.1 mph 38.6 mph 92 % 0.3 in
18:23 12.5 °F 11.2 °F 1005.6 in SW 13.0 mph 41.8 mph 92 % 0.3 in
18:25 12.4 °F 11.1 °F 1005.6 in WSW 17.7 mph 32.2 mph 92 % 0.3 in
18:31 12.4 °F 11.3 °F 1005.6 in West 17.7 mph 29.0 mph 93 % 0.5 in
18:33 12.4 °F 11.3 °F 1005.6 in WSW 33.8 mph 35.4 mph 93 % 0.5 in
18:37 12.4 °F 11.3 °F 1005.6 in West 27.4 mph 30.6 mph 93 % 0.5 in
18:57 12.1 °F 11.2 °F 1005.6 in SW 40.4 mph 40.4 mph 94 % 0.5 in
19:05 12.1 °F 11.2 °F 1005.6 in SW 33.8 mph 33.8 mph 94 % 0.5 in
19:07 12.1 °F 11.2 °F 1005.6 in WSW 20.9 mph 30.6 mph 94 % 0.5 in
19:11 12.0 °F 11.2 °F 1005.6 in WSW 16.3 mph 30.6 mph 95 % 0.5 in
19:17 12.0 °F 11.2 °F 1005.6 in West 19.5 mph 32.2 mph 95 % 0.5 in
19:19 12.0 °F 11.2 °F 1005.6 in West 16.3 mph 25.7 mph 95 % 0.5 in
19:23 12.0 °F 11.2 °F 1005.6 in SW 22.7 mph 33.8 mph 95 % 0.5 in
19:31 12.0 °F 11.2 °F 1005.6 in WSW 20.9 mph 35.4 mph 95 % 0.5 in
19:37 12.0 °F 11.2 °F 1006.0 in WSW 33.8 mph 38.6 mph 95 % 0.5 in
19:39 12.0 °F 11.2 °F 1006.0 in WSW 19.5 mph 43.4 mph 95 % 0.5 in
19:45 12.0 °F 11.2 °F 1005.6 in WSW 24.1 mph 43.4 mph 95 % 0.3 in
19:54 12.0 °F 11.2 °F 1006.0 in SW 24.1 mph 29.0 mph 95 % 0.5 in
19:59 12.0 °F 11.2 °F 1005.6 in West 19.5 mph 38.6 mph 95 % 0.5 in
20:05 12.0 °F 11.4 °F 1006.0 in West 19.5 mph 32.2 mph 96 % 0.5 in
20:11 12.0 °F 11.4 °F 1006.0 in WSW 17.7 mph 33.8 mph 96 % 0.5 in
20:17 12.1 °F 11.5 °F 1006.3 in WNW 28.8 mph 35.4 mph 96 % 0.5 in
20:23 11.8 °F 10.9 °F 1006.3 in NW 28.8 mph 45.1 mph 94 % 1.0 in
20:29 11.2 °F 10.1 °F 1006.7 in NW 22.7 mph 37.0 mph 93 % 1.3 in
20:36 11.1 °F 9.8 °F 1006.7 in WNW 25.9 mph 37.0 mph 92 % 1.3 in
20:37 10.8 °F 9.6 °F 1006.7 in West 27.4 mph 38.6 mph 92 % 1.3 in
20:43 10.7 °F 9.3 °F 1006.7 in WNW 19.5 mph 20.9 mph 91 % 1.3 in
20:49 10.6 °F 9.0 °F 1006.3 in SW 13.0 mph 22.5 mph 90 % 1.0 in
20:55 10.7 °F 8.8 °F 1006.7 in West 19.5 mph 25.7 mph 88 % 0.8 in
21:01 10.6 °F 8.5 °F 1006.7 in NW 16.3 mph 20.9 mph 87 % 0.8 in
21:07 10.6 °F 8.5 °F 1006.7 in WNW 14.3 mph 25.7 mph 87 % 0.8 in
21:13 10.3 °F 8.4 °F 1007.0 in WNW 14.3 mph 17.7 mph 88 % 0.5 in
21:19 10.3 °F 8.4 °F 1007.0 in West 16.3 mph 20.9 mph 88 % 0.3 in
21:25 10.2 °F 8.3 °F 1007.0 in West 7.9 mph 14.5 mph 88 % 0.0 in
21:31 10.2 °F 8.3 °F 1007.0 in WNW 9.7 mph 20.9 mph 88 % 0.0 in
21:37 10.1 °F 8.2 °F 1007.3 in West 11.1 mph 17.7 mph 88 % 0.0 in
21:39 10.1 °F 8.2 °F 1007.3 in WSW 6.4 mph 16.1 mph 88 % 0.0 in
21:45 9.9 °F 8.2 °F 1007.3 in WNW 16.3 mph 24.1 mph 89 % 0.0 in
21:51 9.8 °F 8.1 °F 1007.7 in West 14.3 mph 20.9 mph 89 % 0.0 in
21:57 9.7 °F 8.0 °F 1007.7 in West 11.1 mph 19.3 mph 89 % 0.0 in
22:13 9.7 °F 8.0 °F 1008.0 in West 13.0 mph 14.5 mph 89 % 0.0 in
22:25 9.6 °F 7.9 °F 1007.7 in WSW 19.5 mph 19.5 mph 89 % 0.0 in
22:31 9.5 °F 7.8 °F 1008.0 in West 16.3 mph 19.3 mph 89 % 0.0 in
22:41 9.3 °F 7.6 °F 1008.0 in WSW 17.7 mph 22.5 mph 89 % 0.0 in
22:43 9.3 °F 7.6 °F 1008.0 in WSW 17.7 mph 17.7 mph 89 % 0.0 in
22:49 9.3 °F 7.6 °F 1008.0 in West 9.7 mph 20.9 mph 89 % 0.0 in
22:53 9.3 °F 7.6 °F 1008.0 in West 16.3 mph 20.9 mph 89 % 0.0 in
22:55 9.3 °F 7.6 °F 1008.0 in West 14.3 mph 19.3 mph 89 % 0.0 in
23:07 9.2 °F 7.6 °F 1008.0 in WSW 16.3 mph 17.7 mph 90 % 0.0 in
23:09 9.2 °F 7.6 °F 1008.4 in WSW 11.1 mph 19.3 mph 90 % 0.0 in
23:15 9.2 °F 7.6 °F 1008.4 in WSW 14.3 mph 19.3 mph 90 % 0.0 in
23:19 9.2 °F 7.6 °F 1008.4 in SW 6.4 mph 16.1 mph 90 % 0.0 in
23:25 9.2 °F 7.6 °F 1008.4 in WSW 3.2 mph 14.5 mph 90 % 0.0 in
23:31 9.2 °F 7.6 °F 1008.4 in SW 7.9 mph 17.7 mph 90 % 0.0 in
23:33 9.2 °F 7.6 °F 1008.4 in SW 16.3 mph 24.1 mph 90 % 0.0 in
23:35 9.2 °F 7.6 °F 1008.4 in SW 20.9 mph 24.1 mph 90 % 0.0 in
23:41 9.2 °F 7.6 °F 1008.4 in WSW 7.9 mph 12.9 mph 90 % 0.0 in
23:42 9.2 °F 7.6 °F 1008.4 in SSW 11.1 mph 20.9 mph 90 % 0.0 in
23:49 9.2 °F 7.6 °F 1008.4 in SW 6.4 mph 14.5 mph 90 % 0.0 in
23:51 9.2 °F 7.6 °F 1008.4 in SW 11.1 mph 14.5 mph 90 % 0.0 in
23:57 9.2 °F 7.8 °F 1008.4 in SW 13.0 mph 16.1 mph 91 % 0.0 in
Meteo18
Compliments of Weather Underground - 4 mb

Script developed by  Jim McMurry - jmcmurry@mwt.net Adapted for the template by  Wim van der Kuil - Leuven-Template.eu

You find our weather info also at:

European Weather Network

Weather Underground

Equipment we use:

Weather-station
Davis Vue

Weather-program
Meteobridge

Weather-server
Raspberry PI 2 B+

Provider
1 and 1

Davis Vue

Meteobridge

Raspberry PI 2 B+

1 and 1